168  
ASUS43 KEAX 230510  
RWREAX  
 
WEATHER ROUNDUP FOR EASTERN KANSAS AND NORTHWEST MISSOURI  
NATIONAL WEATHER SERVICE KANSAS CITY/PLEASANT HILL MO  
1200 AM CDT SAT JUN 23 2018  
 
KSZ040-057-103>105-MOZ028-029-037-043-230600-   
..KANSAS CITY METROPOLITAN AREA
 
 
 
CITY SKY/WX TMP DP RH WIND PRES REMARKS
 
K.C. INTL CLOUDY 65 63 93 W5 29.86S  
K.C. DOWNTOWN CLOUDY 69 62 78 W5 29.85S  
LEES SUMMIT CLOUDY 67 64 90 W3 29.87R  
OLATHE - IXD CLOUDY 68 62 81 W7 29.88F  
OLATHE - OJC CLOUDY 66 62 87 W7 29.87F  
LAWRENCE CLOUDY 68 63 84 W3 29.86F  
 

 
 
MOZ001>008-011>017-020>025-030>033-038>040-044>046-053-054-230600-   
..NORTHERN AND CENTRAL MISSOURI
 
 
 
CITY SKY/WX TMP DP RH WIND PRES REMARKS
 
ST. JOSEPH CLOUDY 65 65 100 SW6 29.85S  
MOSBY PTCLDY 63 61 94 W6 29.86R  
WARRENSBURG CLOUDY 68 61 77 SW6 29.86R  
WHITEMAN AFB CLOUDY 68 64 88 W7 29.83R  
CLINTON NOT AVBL  
SEDALIA CLOUDY 69 64 84 W5 29.85R  
WARSAW NOT AVBL  
CHILLICOTHE N/A 67 64 90 CALM 29.84R  
KIRKSVILLE PTCLDY 62 61 96 W6 29.83R  
 

 
 
MOZ041-047>049-056>058-063>065-088>090-097-230600-   
..EASTERN AND SOUTHERN MISSOURI
 
 
 
CITY SKY/WX TMP DP RH WIND PRES REMARKS
 
ST. LOUIS INTL CLOUDY 68 65 90 NW5 29.77S  
SPIRIT OF STL CLOUDY 69 66 90 W5 29.77S  
COLUMBIA CLOUDY 68 63 84 W6 29.82R  
JEFFERSON CITY CLOUDY 70 63 78 CALM 29.81R  
ROLLA PTCLDY 64 62 93 SW6 29.83R  
OSAGE BEACH CLOUDY 67 64 90 W3 29.84R  
SPRINGFIELD CLEAR 69 62 78 NE3 29.84R  
BRANSON CLEAR 72 63 73 CALM 29.83F  
JOPLIN MOCLDY 68 64 87 NW6 29.89R  
WEST PLAINS PTCLDY 67 63 87 CALM 29.85R  
 

 
 
IAZ060-094-KSZ022-034>040-054-083-096-NEZ052-066-093-230600-    
..KANSAS...SOUTHEAST NEBRASKA AND IOWA
 
 
 
CITY SKY/WX TMP DP RH WIND PRES REMARKS
 
TOPEKA CLOUDY 67 65 93 NE3 29.84F  
MANHATTAN CLOUDY 67 61 81 E12 29.76F  
EMPORIA CLOUDY 64 61 90 S8 29.85F  
CHANUTE LGT RAIN 68 65 90 W6 29.91F  
WICHITA LGT RAIN 65 64 97 E17G31 29.72F  
OMAHA CLOUDY 65 60 84 CALM 29.83S  
LINCOLN CLOUDY 62 60 93 CALM 29.83F  
FALLS CITY CLOUDY 64 62 93 SW3 29.84F  
LAMONI CLOUDY 65 62 90 W5 29.83R  
DES MOINES CLOUDY 66 62 87 W3 29.82R  
 

 
 
 
 
CLICK HERE TO GO TO PREVIOUS BULLETINS.

The Nexlab MO Page
The Nexlab KS Page Main Text Page